1496512800.63,8648,22.81,74110.5,5.01,-19.81,-19.65,0,*41
1496512801.9,8649,22.81,74108.5,5.01,-19.65,-19.81,0,*40
1496512803.16,8650,22.81,74108.8,5.01,-20.15,-21.33,0,*47
1496512804.41,8651,22.81,74108.5,5.01,-21.17,-22.31,0,*44
1496512805.66,8652,22.81,74110.8,5.01,-21.53,-22.83,0,*4E
1496512806.9,8653,22.81,74108.3,4.99,-22.31,-23.33,0,*42
1496512808.12,8654,22.81,74108.3,4.99,-23.29,-24.31,0,*48
1496512809.37,8655,22.81,74104.3,4.97,-24.87,-25.87,0,*48
1496512810.61,8656,22.81,74108.0,4.97,-25.65,-26.29,0,*41
1496512811.84,8657,22.81,74108.3,4.99,-25.39,-26.97,0,*42
1496512813.07,8658,22.81,74106.8,4.97,-26.45,-28.79,0,*45
1496512814.3,8659,22.81,74110.5,4.95,-26.77,-28.53,0,*4F
1496512815.52,8660,22.81,74106.5,4.95,-25.81,-27.51,0,*42
1496512816.77,8661,22.81,74104.3,4.93,-25.23,-27.19,0,*41
1496512818.05,8662,22.81,74108.3,4.93,-24.21,-27.39,0,*43
1496512819.28,8663,22.81,74104.8,4.95,-22.93,-26.13,0,*42
1496512820.5,8664,22.81,74106.5,4.93,-21.47,-24.93,0,*43
1496512821.73,8665,22.81,74106.0,4.93,-19.71,-24.05,0,*43
1496512822.97,8666,22.81,74106.8,4.91,-18.55,-22.97,0,*48
1496512824.24,8667,22.81,74106.8,4.91,-17.41,-21.53,0,*48
1496512825.46,8668,22.81,74106.0,4.89,-16.51,-19.99,0,*43
1496512826.67,8669,22.81,74106.5,4.89,-15.81,-18.65,0,*4E
1496512827.9,8670,22.81,74110.0,4.89,-15.21,-17.45,0,*41
1496512829.14,8671,22.81,74108.5,4.89,-14.93,-17.11,0,*49
1496512830.37,8672,22.81,74104.5,4.89,-14.93,-17.03,0,*49
1496512831.61,8673,22.81,74104.5,4.89,-15.39,-17.17,0,*4C
1496512832.81,8674,22.81,74106.8,4.89,-16.41,-17.69,0,*4E
1496512834.0,8675,22.81,74108.5,4.89,-17.73,-19.13,0,*4C
1496512835.21,8676,22.81,74110.5,4.89,-19.91,-20.99,0,*45
1496512836.42,8677,22.81,74108.0,4.89,-22.07,-22.77,0,*41
1496512837.61,8678,22.81,74108.0,4.89,-23.59,-23.79,0,*4B
1496512838.86,8679,22.81,74108.3,4.85,-24.21,-23.85,0,*4D
1496512840.13,8680,22.81,74104.0,4.87,-23.53,-23.99,0,*46
1496512841.35,8681,22.81,74108.5,4.85,-24.35,-25.29,0,*4F
1496512842.57,8682,22.81,74106.8,4.87,-25.13,-25.19,0,*48
1496512843.77,8683,22.81,74108.5,4.81,-25.49,-25.35,0,*4E
1496512844.99,8684,22.81,74106.3,4.81,-25.71,-25.19,0,*4C
1496512846.21,8685,22.81,74108.5,4.81,-25.39,-25.03,0,*4A
1496512847.4,8686,22.81,74108.3,4.81,-25.23,-24.35,0,*46
1496512848.64,8687,22.81,74110.0,4.79,-25.97,-24.93,0,*43
1496512849.83,8688,22.81,74106.8,4.81,-27.55,-26.23,0,*4E
1496512851.08,8689,22.81,74108.3,4.79,-28.05,-26.87,0,*4C
1496512852.33,8690,22.81,74110.3,4.79,-29.01,-28.53,0,*46
1496512853.57,8691,22.81,74104.8,4.79,-29.45,-29.29,0,*4B
1496512854.79,8692,22.81,74108.8,4.79,-29.95,-29.79,0,*40
1496512856.06,8693,22.81,74110.0,4.75,-30.17,-30.05,0,*4C
1496512857.33,8694,22.81,74110.5,4.75,-30.05,-30.17,0,*4B
1496512858.61,8695,22.81,74108.5,4.75,-30.05,-30.17,0,*4A
1496512859.85,8696,22.81,74106.8,4.75,-29.83,-29.73,0,*45
1496512861.13,8697,22.81,74106.3,4.75,-29.39,-29.73,0,*45
1496512862.37,8698,22.81,74106.3,4.75,-29.83,-29.73,0,*4B
1496512863.64,8699,22.81,74104.8,4.75,-29.01,-29.13,0,*46
1496512864.83,8700,22.81,74108.8,4.73,-28.69,-29.57,0,*4E
1496512866.05,8701,22.81,74108.0,4.73,-29.13,-30.45,0,*48
1496512867.31,8702,22.81,74110.3,4.73,-29.51,-30.73,0,*48
1496512868.55,8703,22.81,74108.5,4.73,-29.29,-30.39,0,*48
1496512869.78,8704,22.81,74110.0,4.69,-28.85,-29.89,0,*40
1496512871.0,8705,22.81,74108.8,4.69,-29.17,-30.27,0,*47
1496512872.22,8706,22.81,74110.5,4.73,-29.13,-30.33,0,*4E
1496512873.47,8707,22.81,74104.0,4.69,-29.17,-30.61,0,*47
1496512874.74,8708,22.81,74108.0,4.67,-29.13,-30.55,0,*45
1496512875.99,8709,22.81,74108.3,4.67,-28.79,-30.45,0,*48
1496512877.23,8710,22.81,74108.5,4.67,-28.43,-30.11,0,*48
1496512878.47,8711,22.81,74108.8,4.67,-28.09,-29.95,0,*43
1496512879.72,8712,22.81,74106.8,4.65,-28.09,-30.05,0,*43
1496512880.99,8713,22.81,74110.3,4.63,-27.61,-30.05,0,*45
1496512882.22,8714,22.81,74106.3,4.65,-27.29,-29.89,0,*44
1496512883.44,8715,22.81,74110.0,4.65,-26.81,-29.67,0,*46
1496512884.71,8716,22.81,74108.5,4.63,-26.33,-29.01,0,*4A
1496512885.9,8717,22.81,74108.3,4.65,-25.49,-27.77,0,*4C
1496512887.18,8718,22.81,74104.8,4.63,-24.83,-26.77,0,*43
1496512888.41,8719,22.81,74108.5,4.57,-24.71,-26.39,0,*42
1496512889.62,8720,22.81,74106.0,4.61,-24.57,-26.39,0,*49
1496512890.84,8721,22.81,74108.3,4.61,-24.15,-26.65,0,*47
1496512892.06,8722,22.81,74110.8,4.61,-23.99,-27.03,0,*46
1496512893.27,8723,22.81,74104.0,4.61,-23.43,-27.03,0,*40
1496512894.49,8724,22.81,74110.8,4.63,-23.13,-26.65,0,*41
1496512895.68,8725,22.81,74108.8,4.61,-22.63,-26.49,0,*4A
1496512896.93,8726,22.81,74108.5,4.57,-22.17,-26.29,0,*49
1496512898.15,8727,22.81,74106.8,4.57,-21.47,-25.81,0,*4F
1496512899.34,8728,22.81,74108.8,4.57,-20.69,-25.13,0,*46
1496512900.54,8729,22.81,74106.3,4.57,-19.95,-24.51,0,*49
1496512901.75,8730,22.81,74106.5,4.57,-19.17,-23.69,0,*47
1496512902.98,8731,22.81,74104.8,4.57,-18.31,-22.57,0,*4F
1496512904.22,8732,22.81,74106.8,4.55,-17.31,-22.31,0,*41
1496512905.44,8733,22.81,74106.3,4.57,-16.75,-21.97,0,*4C
1496512906.64,8734,22.81,74104.3,4.57,-15.75,-21.17,0,*40
1496512907.89,8735,22.81,74102.5,4.55,-14.61,-20.49,0,*4D
1496512909.13,8736,22.81,74106.5,4.55,-13.65,-19.81,0,*43
1496512910.4,8737,22.81,74104.3,4.55,-12.57,-18.31,0,*48
1496512911.65,8738,22.81,74104.3,4.55,-11.23,-17.41,0,*4F
1496512912.89,8739,22.81,74104.8,4.55,-10.89,-17.25,0,*4D
1496512914.13,8740,22.81,74104.8,4.55,-10.23,-16.23,0,*44
1496512915.35,8741,22.81,74106.0,4.57,-9.49,-15.49,0,*7C
1496512916.6,8742,22.81,74104.3,4.55,-8.89,-15.01,0,*7C
1496512917.81,8743,22.81,74102.3,4.55,-8.25,-14.61,0,*7C
1496512919.08,8744,22.81,74106.0,4.55,-7.57,-13.87,0,*7E
1496512920.32,8745,22.81,74106.3,4.55,-7.01,-12.93,0,*78
1496512921.55,8746,22.81,74108.0,4.57,-6.27,-11.59,0,*79
1496512922.76,8747,22.81,74100.8,4.57,-5.23,-10.05,0,*77
1496512923.94,8748,22.81,74104.5,4.57,-4.33,-8.33,0,*44
1496512925.13,8749,22.81,74106.3,4.57,-3.35,-6.81,0,*43
1496512926.34,8750,22.81,74106.8,4.57,-2.59,-5.35,0,*4C
1496512927.54,8751,22.81,74110.0,4.57,-1.95,-4.33,0,*49
1496512928.74,8752,22.81,74106.5,4.61,-1.55,-3.55,0,*44
1496512929.95,8753,22.81,74102.5,4.61,-1.05,-2.91,0,*49
1496512931.13,8754,22.81,74108.5,4.57,-0.69,-2.19,0,*70
1496512932.34,8755,22.81,74106.5,4.57,-0.41,-1.83,0,*7B
1496512933.5,8756,22.81,74110.5,4.61,0.01,-1.21,0,*6C
1496512934.69,8757,22.81,74106.8,4.61,0.33,-0.65,0,*6D
1496512935.88,8758,22.81,74106.5,4.61,0.67,-0.33,0,*60
1496512937.13,8759,22.81,74108.3,4.63,1.09,0.13,0,*75
1496512938.38,8760,22.81,74106.5,4.63,1.33,0.47,0,*77
1496512939.62,8761,22.81,74104.8,4.63,1.43,0.71,0,*74
1496512940.84,8762,22.81,74104.3,4.65,1.55,0.71,0,*76
1496512942.09,8763,22.81,74108.5,4.63,1.67,0.87,0,*79
1496512943.3,8764,22.81,74104.8,4.63,1.89,1.05,0,*45
1496512944.52,8765,22.81,74104.0,4.65,2.01,1.29,0,*4F
1496512945.7,8766,22.81,74106.5,4.65,2.13,1.41,0,*41
1496512946.93,8767,22.81,74104.3,4.65,2.17,1.67,0,*40
1496512948.11,8768,22.81,74110.3,4.65,2.35,1.71,0,*48
1496512949.28,8769,22.81,74106.8,4.65,2.27,1.79,0,*42
1496512950.48,8770,22.81,74106.0,4.67,2.31,1.83,0,*4A
1496512951.7,8771,22.81,74104.8,4.69,2.43,1.97,0,*45
1496512952.95,8772,22.81,74108.3,4.67,2.43,2.05,0,*40
1496512954.17,8773,22.81,74108.3,4.69,2.51,2.25,0,*4E
1496512955.39,8774,22.81,74104.5,4.67,2.55,2.31,0,*46
1496512956.59,8775,22.81,74106.0,4.69,2.61,2.43,0,*4B
1496512957.78,8776,22.81,74108.0,4.69,2.59,2.35,0,*42
1496512959.01,8777,22.81,74106.0,4.69,2.59,2.43,0,*42
1496512960.2,8778,22.81,74104.8,4.69,2.61,2.47,0,*42
1496512961.42,8779,22.81,74106.3,4.69,2.59,2.47,0,*48
1496512962.64,8780,22.81,74104.3,4.69,2.69,2.47,0,*4D
1496512963.86,8781,22.81,74104.0,4.69,2.69,2.51,0,*4B
1496512965.08,8782,22.81,74106.0,4.73,2.73,2.55,0,*4C
1496512966.29,8783,22.81,74104.0,4.73,2.73,2.55,0,*4D
1496512967.5,8784,22.81,74104.3,4.73,2.73,2.55,0,*4A
1496512968.7,8785,22.81,74104.8,4.73,2.85,2.65,0,*41
1496512969.9,8786,22.81,74106.0,4.73,2.77,2.65,0,*4F
1496512971.12,8787,22.81,74104.8,4.73,2.89,2.73,0,*48
1496512972.31,8788,22.81,74108.5,4.73,2.95,2.85,0,*43
1496512973.53,8789,22.81,74106.5,4.73,2.89,2.73,0,*46
1496512974.75,8790,22.81,74108.5,4.73,2.89,2.77,0,*4A
1496512975.94,8791,22.81,74108.0,4.73,2.99,2.73,0,*4E
1496512977.17,8792,22.81,74110.8,4.75,2.85,2.61,0,*45
1496512978.39,8793,22.81,74110.8,4.73,2.89,2.73,0,*4D
1496512979.61,8794,22.81,74104.5,4.77,2.85,2.69,0,*49
1496512980.8,8795,22.81,74106.3,4.73,2.85,2.61,0,*44
1496512982.03,8796,22.81,74104.3,4.75,2.85,2.61,0,*41
1496512983.26,8797,22.81,74108.8,4.75,2.85,2.61,0,*40
1496512984.48,8798,22.81,74104.3,4.75,2.85,2.61,0,*4F
1496512985.73,8799,22.81,74106.8,4.75,2.85,2.51,0,*4D
1496512986.96,8800,22.81,74104.0,4.75,2.65,2.39,0,*42
1496512988.15,8801,22.81,74110.3,4.75,2.61,2.35,0,*4B
1496512989.35,8802,22.81,74106.3,4.75,2.61,2.27,0,*4B
1496512990.6,8803,22.81,74104.8,4.75,2.51,2.17,0,*4A
1496512991.82,8804,22.81,74106.0,4.77,2.55,2.21,0,*4E
1496512993.05,8805,22.81,74104.3,4.77,2.51,2.09,0,*41
1496512994.29,8806,22.81,74102.5,4.75,2.39,2.01,0,*46
1496512995.49,8807,22.81,74104.5,4.77,2.31,1.93,0,*45
1496512996.69,8808,22.81,74106.3,4.77,2.27,1.85,0,*4A
1496512997.92,8809,22.81,74106.8,4.75,2.17,1.83,0,*4C
1496512999.13,8810,22.81,74104.0,4.77,2.21,1.71,0,*4E
1496513000.35,8811,22.81,74108.5,4.77,2.05,1.59,0,*43
1496513001.57,8812,22.81,74106.5,4.77,1.97,1.55,0,*44
1496513002.8,8813,22.75,74102.8,4.77,1.93,1.55,0,*41
1496513004.01,8814,22.81,74106.0,4.77,1.93,1.59,0,*4A
1496513005.21,8815,22.81,74106.5,4.77,1.83,1.47,0,*45
1496513006.4,8816,22.81,74106.0,4.77,1.75,1.43,0,*4B
1496513007.62,8817,22.81,74104.0,4.77,1.63,1.43,0,*4D
1496513008.83,8818,22.81,74104.5,4.81,1.63,1.47,0,*4F
1496513010.05,8819,22.81,74104.3,4.77,1.59,1.43,0,*4A
1496513011.26,8820,22.81,74104.5,4.77,1.59,1.47,0,*44
1496513012.48,8821,22.81,74106.0,4.77,1.67,1.55,0,*4B
1496513013.73,8822,22.81,74106.8,4.79,1.63,1.51,0,*46
1496513014.95,8823,22.81,74104.8,4.77,1.47,1.47,0,*48
1496513016.17,8824,22.81,74108.8,4.77,1.47,1.55,0,*4C
1496513017.39,8825,22.81,74108.3,4.77,1.37,1.47,0,*49
1496513018.65,8826,22.81,74106.0,4.79,1.37,1.51,0,*43
1496513019.86,8827,22.81,74106.5,4.79,1.41,1.59,0,*4B
1496513021.08,8828,22.81,74106.3,4.79,1.41,1.59,0,*44
1496513022.3,8829,22.81,74106.5,4.79,1.41,1.63,0,*4C
1496513023.55,8830,22.81,74104.0,4.79,1.37,1.63,0,*45
1496513024.75,8831,22.81,74104.8,4.79,1.41,1.75,0,*42
1496513025.99,8832,22.81,74108.3,4.79,1.59,1.97,0,*44
1496513027.21,8833,22.81,74106.8,4.81,1.51,1.97,0,*4A
1496513028.45,8834,22.81,74104.0,4.79,1.59,1.97,0,*42
1496513029.67,8835,22.81,74104.8,4.79,1.75,2.01,0,*41
1496513030.87,8836,22.81,74108.5,4.81,1.75,2.01,0,*45
1496513032.09,8837,22.81,74108.0,4.81,1.89,2.09,0,*4F
1496513033.31,8838,22.81,74106.3,4.81,1.97,2.13,0,*44
1496513034.53,8839,22.81,74104.3,4.79,2.01,2.31,0,*4E
1496513035.75,8840,22.81,74106.5,4.79,2.09,2.31,0,*48
1496513036.97,8841,22.81,74106.8,4.79,2.13,2.31,0,*42
1496513038.21,8842,22.81,74108.3,4.79,2.13,2.25,0,*44
1496513039.44,8843,22.81,74106.5,4.79,2.31,2.43,0,*45
1496513040.69,8844,22.81,74108.3,4.79,2.43,2.55,0,*40
1496513041.91,8845,22.81,74106.0,4.81,2.55,2.59,0,*4D
1496513043.11,8846,22.81,74106.5,4.81,2.59,2.61,0,*49
1496513044.34,8847,22.81,74110.5,4.79,2.61,2.59,0,*4F
1496513045.56,8848,22.81,74108.3,4.81,2.59,2.55,0,*40
1496513046.75,8849,22.81,74110.3,4.81,2.61,2.59,0,*46
1496513047.96,8850,22.81,74106.5,4.79,2.61,2.61,0,*42
1496513049.13,8851,22.81,74110.5,4.81,2.61,2.61,0,*44
1496513050.33,8852,22.81,74104.3,4.81,2.61,2.59,0,*4C
1496513051.55,8853,22.75,74104.8,4.81,2.59,2.47,0,*49
1496513052.75,8854,22.81,74108.8,4.81,2.61,2.59,0,*4A
1496513053.97,8855,22.81,74108.0,4.81,2.69,2.55,0,*4F
1496513055.18,8856,22.81,74110.0,4.85,2.73,2.59,0,*4F
1496513056.38,8857,22.81,74106.5,4.85,2.65,2.59,0,*49
1496513057.58,8858,22.81,74108.0,4.85,2.73,2.61,0,*4A
1496513058.78,8859,22.81,74108.3,4.85,2.89,2.65,0,*4A
1496513060.0,8860,22.81,74108.5,4.87,2.85,2.65,0,*4E
1496513061.22,8861,22.81,74106.5,4.87,2.89,2.65,0,*43
1496513062.45,8862,22.81,74106.8,4.87,2.89,2.65,0,*40
1496513063.65,8863,22.81,74110.0,4.87,2.95,2.65,0,*4C
1496513064.85,8864,22.81,74108.3,4.87,2.99,2.65,0,*47
1496513066.04,8865,22.81,74110.3,4.89,2.89,2.65,0,*49
1496513067.29,8866,22.81,74110.0,4.91,3.03,2.73,0,*47
1496513068.51,8867,22.81,74108.0,4.89,3.03,2.77,0,*4B
1496513069.77,8868,22.81,74106.0,4.91,3.15,2.81,0,*43
1496513071.02,8869,22.81,74106.5,4.91,3.07,2.81,0,*41
1496513072.27,8870,22.81,74108.5,4.91,3.19,2.81,0,*46
1496513073.51,8871,22.81,74106.3,4.91,3.19,2.81,0,*47
1496513074.71,8872,22.75,74106.5,4.89,3.23,2.91,0,*45
1496513075.9,8873,22.81,74108.5,4.89,3.25,2.89,0,*4B
1496513077.11,8874,22.81,74110.0,4.93,3.25,2.91,0,*4E
1496513078.33,8875,22.81,74106.5,4.93,3.19,2.91,0,*40
1496513079.55,8876,22.81,74108.0,4.93,3.19,2.91,0,*43
1496513080.75,8877,22.81,74108.3,4.93,3.25,2.95,0,*49
1496513081.95,8878,22.81,74110.3,4.95,3.33,2.99,0,*4B
1496513083.13,8879,22.81,74110.8,4.95,3.29,2.95,0,*4D
1496513084.3,8880,22.75,74106.0,4.95,3.25,2.91,0,*43
1496513085.48,8881,22.81,74106.8,4.95,3.29,2.99,0,*46
1496513086.68,8882,22.81,74108.8,4.95,3.33,2.99,0,*4E
1496513087.87,8883,22.81,74104.3,4.95,3.33,2.99,0,*4F
1496513089.1,8884,22.81,74106.0,4.95,3.11,2.85,0,*45
1496513090.3,8885,22.81,74110.0,4.95,2.99,2.85,0,*45
1496513091.52,8886,22.81,74110.3,4.97,2.99,2.85,0,*44
1496513092.76,8887,22.81,74108.3,4.97,2.89,2.69,0,*46
1496513094.0,8888,22.81,74108.5,4.97,2.89,2.73,0,*42
1496513095.25,8889,22.81,74108.5,4.97,2.89,2.73,0,*43
1496513096.49,8890,22.81,74110.8,4.97,2.89,2.77,0,*4F
1496513097.71,8891,22.81,74108.0,4.97,2.99,2.73,0,*4B
1496513098.91,8892,22.81,74110.0,4.95,2.99,2.77,0,*4E
1496513100.12,8893,22.81,74110.8,4.95,2.99,2.77,0,*4F
1496513101.32,8894,22.81,74110.5,4.95,2.99,2.77,0,*48
1496513102.52,8895,22.81,74104.0,4.95,2.99,2.73,0,*4D
1496513103.75,8896,22.81,74104.5,4.99,3.03,2.77,0,*44
1496513104.97,8897,22.81,74108.3,4.97,2.95,2.77,0,*45
1496513106.19,8898,22.75,74106.8,4.97,2.95,2.73,0,*4E
1496513107.39,8899,22.81,74110.3,4.97,2.95,2.61,0,*4C
1496513108.62,8900,22.81,74108.3,4.99,2.81,2.51,0,*45
1496513109.85,8901,22.81,74110.8,4.97,2.77,2.61,0,*40
1496513111.07,8902,22.81,74108.3,4.99,2.81,2.55,0,*43
1496513112.28,8903,22.81,74110.8,4.99,2.77,2.61,0,*4C
1496513113.51,8904,22.81,74110.5,4.99,2.81,2.51,0,*41
1496513114.75,8905,22.75,74104.3,4.97,2.73,2.47,0,*44
1496513115.97,8906,22.81,74108.0,4.99,2.77,2.43,0,*49
1496513117.23,8907,22.81,74110.5,4.97,2.51,2.17,0,*43
1496513118.45,8908,22.81,74108.0,4.99,2.55,2.21,0,*43
1496513119.64,8909,22.81,74108.3,4.99,2.61,2.21,0,*45
1496513120.86,8910,22.81,74108.8,4.99,2.55,2.21,0,*4A
1496513122.09,8911,22.81,74110.3,4.99,2.51,2.09,0,*45
1496513123.32,8912,22.81,74108.3,4.99,2.39,2.09,0,*48
1496513124.54,8913,22.81,74106.5,4.99,2.43,2.05,0,*48
1496513125.72,8914,22.81,74106.5,4.99,2.27,1.83,0,*40
1496513126.94,8915,22.81,74108.5,4.97,2.25,1.79,0,*48
1496513128.14,8916,22.81,74110.5,4.99,2.27,1.71,0,*4F
1496513129.33,8917,22.81,74108.8,4.99,2.27,1.71,0,*4E
1496513130.55,8918,22.81,74110.0,4.99,2.43,1.71,0,*43
1496513131.77,8919,22.81,74110.8,4.99,2.55,1.71,0,*45
1496513133.0,8920,22.75,74104.8,4.99,2.51,1.67,0,*4C
1496513134.22,8921,22.81,74110.5,4.99,2.51,1.55,0,*4C
1496513135.47,8922,22.75,74104.3,5.01,2.43,1.51,0,*48
1496513136.71,8923,22.81,74108.8,5.01,2.47,1.51,0,*4D
1496513137.95,8924,22.81,74106.8,5.01,2.55,1.51,0,*49
1496513139.2,8925,22.81,74106.3,5.01,2.47,1.51,0,*4B
1496513140.44,8926,22.75,74106.5,5.01,2.55,1.47,0,*4C
1496513141.65,8927,22.75,74104.8,5.01,2.55,1.41,0,*4B
1496513142.89,8928,22.81,74108.5,5.01,2.43,1.29,0,*4D
1496513144.14,8929,22.81,74110.3,5.01,2.43,1.21,0,*44
1496513145.37,8930,22.81,74110.3,5.01,2.31,1.21,0,*49
1496513146.61,8931,22.75,74106.0,5.01,2.25,1.09,0,*47
1496513147.83,8932,22.81,74108.5,5.01,2.35,1.21,0,*4F
1496513149.07,8933,22.81,74110.8,5.01,2.25,1.13,0,*4E
1496513150.3,8934,22.81,74110.0,5.01,2.31,1.13,0,*4C
1496513151.52,8935,22.81,74110.0,5.01,2.31,1.13,0,*4D
1496513152.76,8936,22.81,74108.3,5.01,2.25,1.21,0,*4A
1496513153.98,8937,22.81,74112.8,5.01,2.31,1.37,0,*49
1496513155.2,8938,22.81,74110.0,5.01,2.31,1.29,0,*49
1496513156.45,8939,22.81,74108.3,5.01,2.25,1.29,0,*4D
1496513157.67,8940,22.81,74110.8,5.01,2.31,1.37,0,*49
1496513158.86,8941,22.75,74106.0,5.03,2.35,1.59,0,*46
1496513160.07,8942,22.81,74108.5,5.01,2.35,1.59,0,*47
1496513161.29,8943,22.81,74110.0,5.01,2.35,1.63,0,*4F
1496513162.5,8944,22.81,74110.8,5.01,2.35,1.63,0,*48
1496513163.68,8945,22.81,74108.3,5.03,2.35,1.75,0,*4C
1496513164.88,8946,22.81,74108.8,5.03,2.43,1.83,0,*47
1496513166.12,8947,22.81,74108.8,5.01,2.47,1.93,0,*41
1496513167.34,8948,22.81,74108.5,5.03,2.55,2.13,0,*44
1496513168.58,8949,22.81,74110.8,5.01,2.55,2.21,0,*46
1496513169.78,8950,22.81,74110.3,5.01,2.65,2.31,0,*4C
1496513170.97,8951,22.81,74108.0,5.03,2.69,2.35,0,*47
1496513172.22,8952,22.81,74112.8,5.01,2.77,2.43,0,*48
1496513173.44,8953,22.81,74110.8,5.03,2.81,2.43,0,*42
1496513174.68,8954,22.81,74110.8,5.01,2.77,2.55,0,*49
1496513175.88,8955,22.81,74108.3,5.03,2.81,2.65,0,*40
1496513177.13,8956,22.81,74108.3,5.01,2.77,2.59,0,*47
1496513178.33,8957,22.81,74110.0,5.03,2.81,2.65,0,*42
1496513179.56,8958,22.81,74108.8,5.03,2.81,2.59,0,*42
1496513180.76,8959,22.81,74110.5,5.03,2.81,2.65,0,*4C
1496513181.98,8960,22.75,74106.3,5.03,2.85,2.69,0,*4E
1496513183.2,8961,22.81,74108.8,5.03,2.85,2.77,0,*40
1496513184.39,8962,22.81,74110.0,5.03,2.95,2.85,0,*4F
1496513185.59,8963,22.81,74108.5,5.03,2.91,2.85,0,*4A
1496513186.79,8964,22.75,74108.5,5.07,2.99,2.89,0,*4D
1496513187.98,8965,22.75,74106.3,5.07,2.99,2.85,0,*40
1496513189.2,8966,22.81,74110.8,5.07,2.89,2.73,0,*4B
1496513190.42,8967,22.75,74104.5,5.07,2.89,2.73,0,*4A
1496513191.65,8968,22.81,74110.0,5.07,2.89,2.89,0,*40
1496513192.84,8969,22.81,74110.0,5.07,2.95,2.85,0,*40
1496513194.09,8970,22.81,74110.3,5.09,2.85,2.81,0,*43
1496513195.33,8971,22.81,74108.0,5.09,2.85,2.69,0,*44
1496513196.56,8972,22.81,74108.5,5.09,2.81,2.61,0,*4B
1496513197.79,8973,22.81,74110.3,5.09,2.73,2.69,0,*4F
1496513199.02,8974,22.81,74110.0,5.09,2.81,2.61,0,*4D
1496513200.25,8975,22.75,74106.5,5.09,2.69,2.61,0,*4A
1496513201.49,8976,22.81,74110.8,5.09,2.69,2.59,0,*42
1496513202.69,8977,22.81,74110.0,5.11,2.77,2.61,0,*4E
1496513203.91,8978,22.81,74110.8,5.09,2.61,2.59,0,*44
1496513205.13,8979,22.81,74110.0,5.09,2.61,2.51,0,*4D
1496513206.36,8980,22.81,74106.8,5.11,2.43,2.39,0,*4C
1496513207.58,8981,22.75,74104.8,5.09,2.39,2.35,0,*45
1496513208.83,8982,22.81,74110.0,5.09,2.39,2.39,0,*4A
1496513210.05,8983,22.75,74104.8,5.09,2.35,2.39,0,*47
1496513211.22,8984,22.75,74104.8,5.07,2.27,2.35,0,*41
1496513212.44,8985,22.81,74108.5,5.09,2.17,2.35,0,*4D
1496513213.69,8986,22.81,74110.0,5.09,2.05,2.25,0,*4C
1496513214.93,8987,22.81,74106.8,5.09,2.01,2.25,0,*49
1496513216.18,8988,22.81,74108.0,5.09,2.05,2.25,0,*42
1496513217.42,8989,22.75,74106.5,5.09,1.97,2.25,0,*4B
1496513218.67,8990,22.75,74106.8,5.09,1.89,2.13,0,*49
1496513219.89,8991,22.75,74106.8,5.07,1.89,2.13,0,*46
1496513221.14,8992,22.75,74106.3,5.09,1.85,2.13,0,*47
1496513222.36,8993,22.75,74104.0,5.09,1.75,2.01,0,*4A
1496513223.56,8994,22.75,74106.5,5.07,1.79,1.97,0,*43
1496513224.75,8995,22.81,74108.0,5.07,1.75,1.97,0,*4E
1496513226.0,8996,22.81,74108.0,5.09,1.85,1.97,0,*4C
1496513227.22,8997,22.75,74104.0,5.09,1.79,1.85,0,*4D
1496513228.42,8998,22.81,74106.8,5.07,1.79,1.85,0,*4C
1496513229.62,8999,22.75,74106.3,5.09,1.75,1.79,0,*4C
1496513230.87,9000,22.81,74106.0,5.09,1.63,1.55,0,*4D
1496513232.09,9001,22.75,74102.5,5.07,1.63,1.55,0,*42
1496513233.33,9002,22.81,74106.0,5.09,1.63,1.51,0,*4B
1496513234.54,9003,22.75,74106.3,5.07,1.51,1.43,0,*46
1496513235.74,9004,22.81,74106.0,5.07,1.41,1.33,0,*47
1496513236.99,9005,22.81,74106.3,5.09,1.17,1.13,0,*49
1496513238.2,9006,22.75,74104.0,5.09,0.95,1.01,0,*72
1496513239.44,9007,22.75,74104.0,5.09,0.83,0.91,0,*4C
1496513240.66,9008,22.75,74102.8,5.07,0.71,0.83,0,*43
1496513241.86,9009,22.75,74104.3,5.07,0.41,0.79,0,*44
1496513243.09,9010,22.81,74106.0,5.09,0.29,0.67,0,*43
1496513244.3,9011,22.81,74106.5,5.07,0.17,0.59,0,*4C
1496513245.49,9012,22.75,74100.8,5.07,-0.15,0.41,0,*69
1496513246.67,9013,22.81,74106.0,5.07,-0.29,0.33,0,*62
1496513247.86,9014,22.75,74102.5,5.07,-0.45,0.33,0,*6F
1496513249.06,9015,22.75,74104.8,5.07,-0.53,0.21,0,*6A
1496513250.23,9016,22.75,74104.0,5.07,-0.69,0.09,0,*5A
1496513251.42,9017,22.75,74102.3,5.07,-0.89,0.09,0,*55
1496513252.6,9018,22.81,74106.5,5.07,-1.17,-0.03,0,*4B
1496513253.79,9019,22.75,74102.5,5.07,-1.21,-0.07,0,*4B
1496513254.97,9020,22.75,74106.3,5.03,-1.55,-0.33,0,*71
1496513256.17,9021,22.75,74102.5,5.03,-1.99,-0.61,0,*77
1496513257.37,9022,22.75,74104.0,5.03,-2.43,-0.85,0,*7A
1496513258.56,9023,22.75,74104.5,5.03,-2.95,-1.33,0,*4C
1496513259.79,9024,22.75,74104.3,5.01,-3.47,-1.55,0,*47
1496513261.03,9025,22.75,74104.8,5.01,-3.71,-1.71,0,*45
1496513262.29,9026,22.75,74104.5,5.01,-4.01,-1.91,0,*48
1496513263.5,9027,22.81,74104.0,5.01,-4.41,-2.19,0,*4E
1496513264.75,9028,22.81,74104.3,5.01,-4.85,-2.47,0,*42
1496513265.99,9029,22.81,74106.5,5.03,-5.03,-2.71,0,*4B
1496513267.21,9030,22.75,74102.0,4.99,-5.23,-3.03,0,*47
1496513268.41,9031,22.75,74104.0,5.03,-5.11,-3.11,0,*46
1496513269.64,9032,22.75,74104.8,5.01,-4.89,-3.35,0,*41
1496513270.88,9033,22.75,74104.5,5.01,-4.77,-3.63,0,*42
1496513272.11,9034,22.81,74106.0,5.01,-4.89,-3.95,0,*4D
1496513273.35,9035,22.75,74102.3,5.01,-5.03,-4.65,0,*47
1496513274.55,9036,22.75,74104.3,4.99,-5.73,-5.35,0,*47
1496513275.76,9037,22.75,74104.5,4.99,-6.23,-6.09,0,*4C
1496513276.95,9038,22.75,74100.5,4.99,-6.85,-6.73,0,*42
1496513278.16,9039,22.75,74100.5,4.99,-7.19,-7.01,0,*43
1496513279.39,9040,22.75,74102.8,4.99,-7.39,-7.39,0,*44
1496513280.65,9041,22.75,74102.8,4.97,-7.61,-7.91,0,*44
1496513281.86,9042,22.75,74102.5,4.99,-7.53,-7.95,0,*4C
1496513283.09,9043,22.81,74104.3,4.97,-7.43,-8.17,0,*47
1496513284.35,9044,22.75,74102.8,4.97,-7.31,-8.11,0,*43
1496513285.57,9045,22.75,74104.0,4.97,-7.35,-8.55,0,*46
1496513286.83,9046,22.81,74106.0,4.97,-7.31,-8.51,0,*45
1496513288.04,9047,22.75,74106.8,4.95,-7.43,-9.05,0,*43
1496513289.26,9048,22.75,74106.3,4.95,-7.73,-9.67,0,*4B
1496513290.46,9049,22.75,74104.0,4.95,-8.17,-10.49,0,*73
1496513291.71,9050,22.75,74104.0,4.93,-9.01,-11.51,0,*73
1496513292.94,9051,22.75,74106.8,4.95,-9.53,-12.11,0,*74
1496513294.14,9052,22.81,74104.3,4.95,-9.75,-12.25,0,*74
1496513295.37,9053,22.75,74106.3,4.93,-10.19,-12.97,0,*48
1496513296.59,9054,22.75,74102.8,4.95,-10.57,-13.29,0,*47
1496513297.81,9055,22.75,74104.3,4.95,-10.41,-13.23,0,*4B
1496513299.06,9056,22.75,74104.3,4.93,-10.45,-13.61,0,*4C
1496513300.28,9057,22.75,74106.8,4.93,-10.53,-13.73,0,*49
1496513301.49,9058,22.75,74104.3,4.93,-10.09,-13.73,0,*49
1496513302.7,9059,22.75,74104.3,4.91,-9.79,-13.43,0,*76
1496513303.91,9060,22.75,74104.8,4.91,-8.97,-12.89,0,*7A
1496513305.16,9061,22.75,74104.8,4.91,-8.71,-12.75,0,*70
1496513306.37,9062,22.75,74104.5,4.89,-9.01,-13.01,0,*7E
1496513307.57,9063,22.75,74106.8,4.89,-9.57,-13.51,0,*79
1496513308.75,9064,22.75,74102.3,4.89,-10.57,-14.11,0,*45
1496513309.97,9065,22.75,74106.0,4.89,-11.51,-14.65,0,*40
1496513311.21,9066,22.75,74104.3,4.91,-11.89,-15.07,0,*4A
1496513312.43,9067,22.75,74104.5,4.89,-12.65,-15.67,0,*45
1496513313.68,9068,22.75,74102.3,4.87,-13.83,-16.75,0,*4D
1496513314.92,9069,22.75,74102.5,4.89,-15.21,-17.59,0,*43
1496513316.16,9070,22.75,74102.8,4.87,-16.75,-19.31,0,*47
1496513317.41,9071,22.75,74102.8,4.87,-16.93,-19.41,0,*49
1496513318.63,9072,22.75,74098.8,4.87,-16.89,-19.13,0,*46
1496513319.86,9073,22.75,74102.8,4.87,-15.81,-17.31,0,*42
1496513321.09,9074,22.75,74104.3,4.85,-14.29,-15.85,0,*49
1496513322.31,9075,22.75,74106.5,4.85,-13.23,-14.79,0,*47
1496513323.55,9076,22.75,74104.3,4.85,-11.67,-13.79,0,*41
1496513324.79,9077,22.75,74106.5,4.81,-10.63,-13.33,0,*4F
1496513326.0,9078,22.75,74100.5,4.79,-10.45,-13.69,0,*4C
1496513327.19,9079,22.75,74104.0,4.81,-10.31,-14.11,0,*41
1496513328.41,9080,22.75,74100.5,4.81,-10.93,-14.97,0,*41
1496513329.66,9081,22.75,74104.3,4.81,-11.85,-15.89,0,*48